Location: Unspecified
(0.0000°N, 0.0000°E)
Time: 09:14:45
(UTC+02:00)

Tiros 1 despin weight - All Passes

Search period start: 18 April 2015 00:00
Search period end: 28 April 2015 00:00
Orbit: 598 x 648 km, 48.2° (Epoch: 18 April)

Date Brightness Start Highest point End Pass type
(mag) Time Alt. Az. Time Alt. Az. Time Alt. Az.
18 Apr - 00:23:02 10° W 00:25:20 13° SW 00:27:25 10° SSW night (unlit)
18 Apr - 10:48:02 10° SW 10:52:41 75° SE 10:57:22 10° NE daylight
18 Apr - 22:57:25 10° NW 23:01:51 63° SW 23:06:15 10° SSE visible
19 Apr - 09:26:20 10° S 09:29:12 17° SE 09:32:15 10° E daylight
19 Apr - 11:06:29 10° WSW 11:10:50 38° NW 11:15:11 10° NNE daylight
19 Apr - 21:34:45 10° N 21:38:28 26° NE 21:42:12 10° ESE visible
19 Apr - 23:16:31 10° WNW 23:20:02 22° SW 23:23:25 10° S visible
20 Apr - 09:43:01 10° SSW 09:47:26 44° SE 09:51:55 10° ENE daylight
20 Apr - 11:26:29 10° W 11:29:07 14° NW 11:31:33 10° NNW daylight
20 Apr - 21:52:08 10° NW 21:56:37 76° NE 22:01:04 10° SE visible
21 Apr - 10:00:58 10° SW 10:05:33 63° NW 10:10:11 10° NNE daylight
21 Apr - 20:30:25 10° N 20:33:08 16° NE 20:36:00 10° E visible
21 Apr - 22:10:36 10° WNW 22:14:45 36° SW 22:18:49 10° SSE visible
22 Apr - 08:38:15 10° S 08:42:08 27° SE 08:46:07 10° ENE daylight
22 Apr - 10:20:02 10° WSW 10:23:44 23° NW 10:27:22 10° N daylight
22 Apr - 20:47:04 10° NNW 20:51:22 44° NE 20:55:39 10° ESE visible
22 Apr - 22:30:45 10° WSW 22:32:59 13° SW 22:34:59 10° SSW visible
23 Apr - 08:55:40 10° SW 09:00:16 78° SE 09:04:56 10° NE daylight
23 Apr - 21:05:01 10° NW 21:09:28 61° SW 21:13:53 10° SSE visible
24 Apr - 07:33:53 10° S 07:36:46 17° SE 07:39:51 10° E visible
24 Apr - 09:14:08 10° WSW 09:18:24 36° NW 09:22:40 10° NNE daylight
24 Apr - 19:42:14 10° N 19:46:03 27° NE 19:49:54 10° ESE daylight
24 Apr - 21:24:07 10° W 21:27:38 21° SW 21:31:00 10° S visible
25 Apr - 07:50:36 10° SSW 07:54:58 45° SE 07:59:26 10° NE daylight
25 Apr - 09:34:12 10° W 09:36:39 14° NW 09:38:54 10° NNW daylight
25 Apr - 19:59:38 10° NW 20:04:11 79° NE 20:08:41 10° SE daylight
26 Apr - 06:31:09 10° SE 06:31:21 10° SE 06:31:52 10° SE visible
26 Apr - 08:08:32 10° SW 08:13:03 61° NW 08:17:38 10° NNE daylight
26 Apr - 18:37:47 10° N 18:40:40 17° NE 18:43:41 10° E daylight
26 Apr - 20:18:07 10° WNW 20:22:17 35° SW 20:26:22 10° SSE visible
27 Apr - 06:45:46 10° S 06:49:38 28° SE 06:53:36 10° ENE visible
27 Apr - 08:27:38 10° W 08:31:14 22° NW 08:34:45 10° N daylight
27 Apr - 18:54:29 10° NNW 18:58:52 46° NE 19:03:13 10° SE daylight
27 Apr - 20:38:20 10° WSW 20:40:30 13° SW 20:42:26 10° SSW visible
